GW4478 Weather Reports


time (UTC)temp
F
wind
direction
speed
knots
gust
knots
rain 1hr
in
rain 24hr
in
rain mn
in
humidity
%
barometer
mb
20260504110511 43 162 0.0 0.0 0.00 0.00 0.00 92 1016.7
20260504100503 43 162 0.0 0.0 0.00 0.00 0.00 91 1016.5
20260504082007 44 162 0.0 0.9 0.00 0.00 0.00 90 1016.7
20260504081519 44 162 0.0 0.0 0.00 0.00 0.00 90 1016.7
20260504081013 44 162 0.0 1.7 0.00 0.00 0.00 90 1016.7
20260504080505 44 162 0.0 1.7 0.00 0.00 0.00 90 1016.8
20260504050508 46 162 0.0 1.7 0.00 0.00 0.00 88 1018.0
20260504050011 46 162 0.0 0.0 0.00 0.00 0.00 88 1018.1
20260504045503 46 162 0.0 0.0 0.00 0.00 0.00 88 1018.0
20260504045009 46 162 0.0 1.7 0.00 0.00 0.00 88 1018.0
20260504044518 46 162 0.0 1.7 0.00 0.00 0.00 86 1018.0
20260504044010 46 162 0.0 1.7 0.00 0.00 0.00 86 1018.0
20260504043507 46 162 0.0 1.7 0.00 0.00 0.00 86 1018.0
20260504043020 46 162 0.0 1.7 0.00 0.00 0.00 86 1018.0
20260504042509 46 162 0.0 1.7 0.00 0.00 0.00 85 1018.0
20260504042009 47 162 0.0 1.7 0.00 0.00 0.00 85 1018.0
20260504041525 47 162 0.0 1.7 0.00 0.00 0.00 85 1018.0
20260504041006 47 162 0.0 1.7 0.00 0.00 0.00 84 1017.9
20260504040503 47 162 0.0 1.7 0.00 0.00 0.00 83 1017.9
20260504040027 48 162 0.0 1.7 0.00 0.00 0.00 82 1017.9
20260504035510 48 162 0.0 1.7 0.00 0.00 0.00 82 1017.9
20260504035008 48 162 0.0 1.7 0.00 0.00 0.00 81 1018.0
20260504034514 48 162 0.9 0.9 0.00 0.00 0.00 82 1018.0
20260504034004 49 174 0.0 1.7 0.00 0.00 0.00 82 1018.0
20260504033504 49 174 0.0 1.7 0.00 0.00 0.00 80 1018.1
20260504033022 49 174 0.0 0.0 0.00 0.00 0.00 81 1018.1
20260504032507 49 174 0.0 0.0 0.00 0.00 0.00 83 1018.1
20260504032012 49 174 0.0 1.7 0.00 0.00 0.00 81 1018.2
20260504031524 49 174 0.0 1.7 0.00 0.00 0.00 83 1018.3
20260504031009 48 174 0.0 1.7 0.00 0.00 0.00 85 1018.3
20260504030507 48 174 0.0 1.7 0.00 0.00 0.00 87 1018.3
20260504030025 48 174 0.0 1.7 0.00 0.00 0.00 85 1018.3
20260504025508 48 174 0.0 1.7 0.00 0.00 0.00 85 1018.4
20260504025008 48 174 0.0 1.7 0.00 0.00 0.00 86 1018.5
20260504024513 48 174 0.0 1.7 0.00 0.00 0.00 87 1018.6
20260504024008 48 173 0.0 1.7 0.00 0.00 0.00 87 1018.4
20260504023505 48 173 0.0 1.7 0.00 0.00 0.00 86 1018.5
20260504023016 48 173 0.0 1.7 0.00 0.00 0.00 86 1018.5
20260504022506 49 173 0.0 0.0 0.00 0.00 0.00 85 1018.4
20260504022007 49 173 0.0 0.0 0.00 0.00 0.00 85 1018.4
20260504021520 49 173 0.0 1.7 0.00 0.00 0.00 85 1018.4
20260504021008 49 173 0.0 1.7 0.00 0.00 0.00 84 1018.3
20260504020506 50 173 0.0 1.7 0.00 0.00 0.00 83 1018.3
20260504020023 50 173 0.0 1.7 0.00 0.00 0.00 83 1018.2
20260504015511 50 173 0.0 1.7 0.00 0.00 0.00 83 1018.2
20260504015012 50 173 0.0 1.7 0.00 0.00 0.00 81 1018.1
20260504014527 50 173 0.0 0.0 0.00 0.00 0.00 80 1018.1
20260504014008 51 173 0.0 0.0 0.00 0.00 0.00 80 1017.9
20260504013503 51 173 0.0 0.0 0.00 0.00 0.00 79 1017.8
20260504013014 52 173 0.0 0.0 0.00 0.00 0.00 78 1017.8
20260504012507 52 173 0.0 0.0 0.00 0.00 0.00 77 1017.7
20260504012008 52 173 0.0 0.0 0.00 0.00 0.00 77 1017.7
20260504011517 53 173 0.0 0.0 0.00 0.00 0.00 76 1017.8
20260504011007 53 173 0.0 1.7 0.00 0.00 0.00 76 1017.8
20260504010507 54 173 0.0 1.7 0.00 0.00 0.00 74 1017.6
20260504010022 54 173 0.0 1.7 0.00 0.00 0.00 74 1017.5
20260504005508 55 173 0.0 1.7 0.00 0.00 0.00 73 1017.5
20260504005011 55 173 0.0 1.7 0.00 0.00 0.00 68 1017.5
20260504004539 56 173 0.0 1.7 0.00 0.00 0.00 66 1017.5
20260504004009 57 173 0.9 0.9 0.00 0.00 0.00 65 1017.4
20260504003514 57 200 0.0 1.7 0.00 0.00 0.00 67 1017.4
20260504003027 58 200 0.0 1.7 0.00 0.00 0.00 66 1017.4
20260504002510 59 200 0.0 1.7 0.00 0.00 0.00 65 1017.5
20260504002006 61 200 0.9 1.7 0.00 0.00 0.00 56 1017.5
20260504001516 61 212 0.9 2.6 0.00 0.00 0.00 49 1017.6
20260504001007 62 214 0.9 2.6 0.00 0.00 0.00 48 1017.6
20260504000505 62 229 0.9 2.6 0.00 0.00 0.00 50 1017.6
20260504000024 63 236 0.9 3.5 0.00 0.00 0.00 47 1017.6
20260503235506 63 255 1.7 3.5 0.00 0.00 0.00 47 1017.7
20260503235009 63 227 0.9 2.6 0.00 0.00 0.00 47 1017.8
20260503234524 63 239 1.7 3.5 0.00 0.00 0.00 45 1017.9
20260503234010 63 238 1.7 6.1 0.00 0.00 0.00 46 1017.9
20260503233508 63 229 1.7 4.3 0.00 0.00 0.00 46 1018.0
20260503233027 64 234 3.5 4.3 0.00 0.00 0.00 46 1017.9
20260503232509 64 234 2.6 4.3 0.00 0.00 0.00 46 1017.9
20260503232011 64 261 2.6 3.5 0.00 0.00 0.00 46 1018.1
20260503231528 64 240 1.7 6.1 0.00 0.00 0.00 45 1018.0
20260503231007 64 232 1.7 6.1 0.00 0.00 0.00 44 1018.0
20260503230508 64 256 3.5 6.1 0.00 0.00 0.00 44 1018.1
20260503230020 64 257 0.9 7.0 0.00 0.00 0.00 44 1018.1
20260503225507 65 317 3.5 9.6 0.00 0.00 0.00 46 1018.2
20260503225012 65 260 6.1 9.6 0.00 0.00 0.00 46 1018.2
20260503224524 65 207 0.9 7.0 0.00 0.00 0.00 45 1018.2
20260503224011 65 253 3.5 7.0 0.00 0.00 0.00 43 1018.2
20260503223507 65 247 2.6 7.8 0.00 0.00 0.00 44 1018.2
20260503223026 65 236 4.3 7.8 0.00 0.00 0.00 45 1018.4
20260503222509 65 250 2.6 7.0 0.00 0.00 0.00 45 1018.3
20260503222008 65 248 3.5 7.0 0.00 0.00 0.00 43 1018.3
20260503221528 65 245 3.5 8.7 0.00 0.00 0.00 43 1018.5
20260503221009 65 273 3.5 8.7 0.00 0.00 0.00 45 1018.4
20260503220509 66 292 3.5 7.8 0.00 0.00 0.00 45 1018.5
20260503220017 65 225 1.7 7.8 0.00 0.00 0.00 45 1018.4
20260503215506 66 257 4.3 7.8 0.00 0.00 0.00 46 1018.4
20260503215005 65 202 4.3 7.0 0.00 0.00 0.00 45 1018.4
20260503214521 65 255 1.7 8.7 0.00 0.00 0.00 45 1018.5
20260503214003 65 242 4.3 12.2 0.00 0.00 0.00 43 1018.6
20260503213511 65 245 4.3 12.2 0.00 0.00 0.00 45 1018.7
20260503213008 66 350 2.6 7.0 0.00 0.00 0.00 48 1018.8
20260503212503 65 238 3.5 7.8 0.00 0.00 0.00 44 1019.0
20260503212005 65 246 3.5 7.8 0.00 0.00 0.00 45 1019.1
20260503211513 65 238 3.5 9.6 0.00 0.00 0.00 47 1019.1
20260503211002 65 288 4.3 9.6 0.00 0.00 0.00 47 1019.1
20260503210510 65 322 2.6 7.0 0.00 0.00 0.00 45 1019.1
20260503210016 65 256 2.6 9.6 0.00 0.00 0.00 44 1019.1
20260503205512 65 258 5.2 9.6 0.00 0.00 0.00 46 1019.3
20260503205006 65 277 6.1 9.6 0.00 0.00 0.00 46 1019.2
20260503204526 65 261 2.6 8.7 0.00 0.00 0.00 42 1019.4
20260503204012 65 217 4.3 8.7 0.00 0.00 0.00 42 1019.4
20260503203509 65 296 5.2 8.7 0.00 0.00 0.00 45 1019.5
20260503203024 65 313 3.5 8.7 0.00 0.00 0.00 44 1019.5
20260503202509 65 348 5.2 8.7 0.00 0.00 0.00 43 1019.7
20260503202010 65 259 3.5 7.0 0.00 0.00 0.00 45 1019.7
20260503201510 65 296 1.7 8.7 0.00 0.00 0.00 44 1019.8
20260503201009 65 252 5.2 9.6 0.00 0.00 0.00 44 1019.8
20260503200503 65 269 1.7 10.4 0.00 0.00 0.00 44 1019.9
20260503200014 65 226 5.2 10.4 0.00 0.00 0.00 47 1020.0
20260503195506 65 266 3.5 9.6 0.00 0.00 0.00 42 1020.2
20260503195006 65 269 1.7 9.6 0.00 0.00 0.00 43 1020.3
20260503194531 64 340 2.6 10.4 0.00 0.00 0.00 44 1020.5
20260503194010 65 243 3.5 10.4 0.00 0.00 0.00 44 1020.5
20260503193510 64 205 5.2 8.7 0.00 0.00 0.00 45 1020.5
20260503193037 64 109 2.6 8.7 0.00 0.00 0.00 50 1020.7
20260503192509 65 219 6.1 8.7 0.00 0.00 0.00 44 1020.8
20260503192010 65 299 1.7 7.8 0.00 0.00 0.00 47 1020.9
20260503191507 64 239 4.3 9.6 0.00 0.00 0.00 46 1020.9
20260503191004 63 265 1.7 9.6 0.00 0.00 0.00 46 1021.0
20260503190510 64 313 4.3 10.4 0.00 0.00 0.00 42 1021.1
20260503190031 64 298 7.0 10.4 0.00 0.00 0.00 45 1021.1
20260503185503 64 329 2.6 7.8 0.00 0.00 0.00 43 1021.1
20260503185012 63 239 2.6 7.8 0.00 0.00 0.00 43 1021.2
20260503184523 64 300 4.3 7.8 0.00 0.00 0.00 46 1021.2
20260503184011 63 301 2.6 8.7 0.00 0.00 0.00 46 1021.3
20260503183507 64 263 4.3 10.4 0.00 0.00 0.00 44 1021.3
20260503183026 63 259 4.3 10.4 0.00 0.00 0.00 46 1021.4
20260503182507 63 339 4.3 10.4 0.00 0.00 0.00 41 1021.5
20260503182010 64 263 1.7 6.1 0.00 0.00 0.00 49 1021.4
20260503181524 63 298 1.7 7.0 0.00 0.00 0.00 46 1021.5
20260503181008 62 215 3.5 7.0 0.00 0.00 0.00 45 1021.5
20260503180504 63 199 4.3 5.2 0.00 0.00 0.00 48 1021.5
20260503180016 62 337 1.7 6.1 0.00 0.00 0.00 48 1021.5
20260503175504 61 337 0.9 10.4 0.00 0.00 0.00 48 1021.6
20260503175003 61 167 6.1 10.4 0.00 0.00 0.00 48 1021.6
20260503174515 61 163 4.3 9.6 0.00 0.00 0.00 50 1021.8
20260503174004 61 211 7.0 9.6 0.00 0.00 0.00 47 1021.8
20260503173506 60 284 0.9 3.5 0.00 0.00 0.00 47 1022.0
20260503173024 60 263 0.9 7.8 0.00 0.00 0.00 48 1022.1
20260503172508 61 253 5.2 7.8 0.00 0.00 0.00 51 1022.2
20260503172007 61 211 1.7 7.0 0.00 0.00 0.00 47 1022.3
20260503171526 60 196 2.6 8.7 0.00 0.00 0.00 51 1022.4
20260503171010 60 252 4.3 8.7 0.00 0.00 0.00 51 1022.4
20260503170508 61 238 3.5 8.7 0.00 0.00 0.00 53 1022.4
20260503151009 56 38 1.7 7.0 0.00 0.00 0.00 56 1023.0
20260503150509 56 13 3.5 6.1 0.00 0.00 0.00 58 1022.9
20260503131009 49 28 1.7 2.6 0.00 0.00 0.00 84 1022.6
20260503130509 48 38 0.9 3.5 0.00 0.00 0.00 83 1022.4